Lapse_Rate
6.5 6.5 6.5 6.5 6.5 6.5 6.5 6.5 6.5 6.5 6.5 6.5 6.5 6.5 6.3 5.5 5.5 5.6 5.6 5.2 4.5 4.1 3.8 3.6 3.5 3.1 3.1 2.7 2.4 2.4 2.1 2.0 2.0 2.0 2.1 2.3 2.5 2.6 2.9 3.0 3.5 3.4 3.6 3.7
6.5 6.5 6.5 6.5 6.5 6.5 6.5 6.5 6.5 6.5 6.5 6.5 6.2 4.7 5.3 5.4 5.8 6.1 6.1 5.9 4.9 4.4 3.6 3.5 3.5 3.4 3.5 2.7 2.5 2.5 2.4 2.3 2.5 2.6 2.8 2.8 3.0 2.9 2.8 2.8 2.8 3.2 3.2 3.4
6.5 6.5 6.5 6.5 6.5 6.5 6.5 6.5 6.5 6.5 6.5 6.5 6.5 6.5 6.1 4.7 5.8 5.9 5.1 4.4 4.3 4.3 3.7 3.6 3.4 3.0 2.8 2.6 2.4 2.6 2.7 2.8 3.2 3.8 3.4 3.4 3.1 3.0 2.9 2.7 2.4 2.7 2.8 3.4
6.5 6.5 6.5 6.5 6.5 6.5 6.5 6.5 6.5 6.5 6.5 6.5 6.4 5.1 2.0 2.7 3.7 4.3 4.1 4.2 4.1 3.5 3.4 3.0 2.4 2.4 2.3 2.6 2.4 2.7 3.1 3.8 4.2 3.7 3.5 3.1 2.8 2.7 2.5 2.6 2.7 2.7 3.2 3.8
6.5 6.5 6.5 6.5 6.5 6.5 6.5 6.5 6.5 6.5 6.5 6.5 5.2 3.7 4.7 1.0 1.4 2.1 2.7 3.0 2.2 2.1 1.6 2.0 2.0 2.5 2.5 2.4 2.8 3.2 3.6 3.4 3.5 3.5 3.3 3.0 2.6 2.2 2.6 2.7 2.4 3.1 3.7 3.8
6.5 6.5 6.5 6.5 6.5 6.3 6.5 6.5 6.5 6.5 6.5 6.5 5.5 6.5 6.5 3.3 0.5 -0.1 0.6 1.0 0.8 0.9 1.2 1.6 2.2 2.5 2.6 2.4 3.0 3.4 3.3 3.4 3.5 3.5 3.3 2.8 2.5 2.6 2.9 2.8 3.5 3.9 4.3 4.7
6.5 6.5 6.5 6.5 6.5 5.7 6.5 6.5 6.2 6.1 5.7 5.7 6.5 5.3 4.2 2.2 0.5 0.4 0.4 0.6 1.2 1.7 1.8 1.8 2.1 2.7 2.7 2.5 2.9 3.1 3.2 3.3 3.6 3.4 3.1 3.0 2.7 2.6 2.5 2.7 3.0 3.1 3.6 3.9
6.5 6.5 6.5 6.4 6.4 6.5 6.5 5.9 5.3 4.5 3.8 4.9 5.2 4.8 3.6 2.5 2.1 1.9 1.5 1.9 2.2 2.2 2.5 2.2 2.2 2.8 2.0 2.1 2.4 2.9 3.2 3.5 3.3 3.0 3.6 4.1 2.7 2.2 2.3 3.0 3.3 3.2 3.6 4.7
6.5 6.5 6.5 6.0 6.3 5.9 5.1 4.9 5.6 3.8 4.1 2.7 4.2 3.9 3.2 2.8 2.6 2.5 2.2 2.4 2.8 2.1 1.9 2.0 2.4 2.5 1.9 2.0 2.6 2.8 2.9 2.9 3.0 3.1 3.0 2.7 2.6 2.8 2.7 3.3 3.5 4.9 5.8 6.7
6.5 6.5 6.5 5.7 5.4 5.2 4.5 2.9 2.9 2.9 3.2 3.1 3.5 3.6 3.3 3.3 3.4 3.0 2.8 2.4 2.5 2.3 2.2 2.1 2.2 2.2 2.0 2.2 2.7 2.5 2.5 2.9 2.6 2.3 3.0 2.2 2.5 3.1 2.9 3.2 4.0 6.7 7.4 7.5
6.5 6.5 6.4 6.0 5.5 3.8 3.4 3.3 3.5 3.8 3.4 3.1 2.8 3.4 2.9 3.2 3.2 3.3 3.2 3.0 2.8 2.4 2.2 1.7 1.7 1.9 2.1 2.4 2.1 2.2 2.4 2.1 1.6 1.9 2.0 2.1 2.6 2.8 3.7 4.1 6.5 7.7 7.7 7.8
6.5 6.1 5.8 5.6 4.2 4.1 4.3 4.2 3.7 3.1 3.2 3.1 2.6 2.8 3.0 3.3 3.3 3.3 3.2 3.0 2.8 2.3 1.9 1.7 2.0 2.0 2.2 2.2 2.1 2.0 1.8 1.5 1.4 2.0 1.8 2.4 2.3 2.8 5.0 6.9 8.1 9.0 9.5 9.2
6.4 4.1 3.5 3.4 3.8 3.6 3.2 3.1 3.2 3.1 3.3 3.2 3.1 3.0 3.0 3.0 2.8 4.4 3.0 2.7 2.3 2.0 2.1 2.0 2.3 2.4 2.4 2.3 1.9 1.8 1.3 1.7 1.7 2.5 2.1 2.1 2.6 3.9 4.9 5.9 7.9 8.1 9.0 9.6
2.8 4.0 5.9 5.3 4.7 3.3 3.1 3.0 2.8 2.4 2.5 2.7 2.5 2.6 2.5 2.3 3.1 2.3 2.5 2.4 2.1 2.1 2.2 2.1 2.3 2.3 2.1 2.0 1.6 1.6 1.8 4.1 2.6 2.0 2.4 2.8 3.6 4.6 5.6 6.2 6.2 6.4 7.6 8.7
3.4 2.7 3.5 3.0 3.0 2.6 2.5 2.7 2.6 2.9 2.8 2.4 2.3 2.0 2.1 1.7 1.8 1.8 1.8 2.2 2.3 2.1 2.0 2.4 2.2 1.9 2.1 2.1 2.1 2.1 2.3 2.2 2.4 2.5 2.8 4.7 5.0 5.3 5.7 6.4 6.8 6.9 6.8 7.6
1.3 1.6 2.9 2.8 2.4 2.1 2.0 2.5 2.4 2.8 2.3 1.9 1.7 1.6 1.3 1.0 1.0 1.5 1.7 1.8 2.1 2.1 2.1 2.0 2.1 2.1 2.1 1.9 2.1 2.2 2.0 4.3 4.6 3.1 3.4 4.2 4.9 5.6 6.3 7.0 7.0 7.0 7.1 7.6
3.2 3.5 2.4 2.7 2.6 3.2 2.8 2.2 2.1 2.6 2.5 1.7 0.7 0.5 0.8 0.9 1.0 1.3 1.6 1.9 2.0 1.9 2.0 1.9 1.9 2.0 2.5 2.8 2.4 2.2 1.9 1.8 4.7 2.7 3.8 4.9 5.6 6.2 6.6 6.5 6.9 7.2 7.3 8.0
0.8 0.7 2.3 2.1 3.1 3.0 2.4 2.1 2.6 2.4 1.8 0.7 0.6 1.0 0.8 1.2 1.2 1.3 1.4 1.2 1.5 1.9 2.0 1.6 1.7 2.3 2.8 2.8 2.6 2.2 2.1 2.3 2.8 3.4 4.7 5.3 6.1 6.7 6.4 6.7 6.9 7.2 7.5 7.4
1.3 1.2 2.1 2.5 2.7 2.3 2.1 1.9 2.0 1.2 0.7 0.9 0.5 1.0 1.7 1.8 1.4 1.4 1.4 2.0 2.2 2.3 1.9 2.2 4.4 3.0 2.5 3.7 3.6 2.2 2.4 2.4 3.0 3.7 4.8 6.4 5.2 5.7 6.0 6.6 7.2 7.2 7.0 6.9
3.8 4.0 3.7 2.7 2.2 1.6 1.7 1.8 1.0 0.8 0.6 0.5 0.6 1.0 1.2 1.3 1.4 1.7 2.4 1.4 1.9 2.2 2.4 3.1 2.7 2.3 2.5 2.9 4.6 2.4 2.4 2.7 3.3 4.0 4.6 5.8 5.3 5.9 6.2 6.7 7.0 6.9 6.7 7.2
4.2 3.8 3.1 2.7 1.6 1.4 0.7 0.6 0.6 0.8 0.9 1.2 1.3 1.1 0.9 1.1 2.1 2.0 1.8 1.7 2.1 3.5 3.5 3.9 2.7 1.9 2.1 3.1 2.6 2.4 2.6 2.9 3.7 3.9 4.2 4.8 5.1 5.2 5.6 5.9 6.0 6.6 6.8 7.6
3.9 3.1 2.6 2.4 1.5 0.7 0.6 0.5 0.5 0.3 0.6 0.5 0.5 0.5 0.9 0.7 0.6 0.6 1.7 2.6 2.4 4.2 2.7 2.2 2.2 4.2 3.7 4.5 2.4 2.5 3.1 3.6 3.6 3.6 3.6 4.2 4.5 4.6 4.6 5.4 6.0 6.0 6.2 5.7
2.8 2.0 1.7 1.5 0.8 0.3 0.5 0.3 0.3 0.2 0.0 0.3 0.7 1.1 1.6 1.4 2.2 2.6 2.1 2.3 2.4 3.9 1.8 1.8 4.4 5.4 5.4 2.1 2.4 2.8 3.0 3.3 3.7 3.8 3.5 2.8 3.5 3.6 5.1 5.6 5.6 5.4 4.8 5.3
2.2 1.1 0.4 -0.0 -0.3 -0.0 -0.6 -0.4 -0.5 -0.5 -0.3 0.5 0.8 1.5 1.7 1.6 1.5 1.4 2.5 3.8 4.2 3.0 2.4 3.3 4.0 5.2 4.5 2.1 2.0 2.2 2.7 3.0 2.3 1.5 2.8 5.2 3.0 3.4 3.3 4.6 4.3 4.7 4.9 4.3
0.5 -0.3 -0.5 -0.7 -0.5 -1.1 -1.7 -1.3 -1.4 -0.7 -0.2 -0.1 0.3 0.8 1.3 1.2 1.9 1.4 1.3 1.5 3.3 2.2 1.5 3.2 4.1 4.5 1.9 1.8 2.1 2.5 2.2 1.4 0.6 3.1 3.7 2.8 3.3 4.0 4.0 4.1 3.9 4.1 4.6 3.6
0.8 0.2 -0.4 -0.4 -0.9 -0.5 -0.4 0.5 -0.2 0.4 0.8 0.6 0.8 1.0 0.9 1.0 1.3 0.4 0.6 1.9 1.6 2.5 1.0 1.0 1.8 2.5 2.2 2.2 2.7 2.7 2.7 2.3 3.0 2.6 3.9 3.7 3.4 2.9 2.8 3.0 3.3 3.2 2.9 2.7
-0.4 -0.1 -0.7 -0.3 0.2 0.4 0.5 1.0 1.0 1.1 1.8 1.7 0.8 1.1 1.1 0.9 1.5 0.7 1.7 0.8 0.7 0.8 1.0 1.4 1.5 2.2 2.9 3.0 2.9 2.6 1.8 1.7 3.1 3.4 2.9 2.1 2.1 2.3 2.6 2.8 2.8 2.6 2.6 2.4
Wind_Speed
13 16 9 9 5 7 5 4 4 5 6 8 8 10 12 13 13 15 16 16 16 15 13 11 11 10 9 8 7 7 7 6 5 4 4 3 3 3 4 5 5 6 6 6
7 8 8 7 5 6 4 3 2 3 2 4 4 6 7 14 17 16 15 14 14 15 14 13 12 12 11 9 7 7 6 6 5 4 3 3 3 4 5 6 6 6 6 6
2 4 5 3 7 4 2 2 5 3 5 4 6 8 10 10 15 16 15 16 17 16 14 13 13 13 11 9 7 7 6 5 4 3 2 3 4 5 6 6 6 6 7 6
3 4 2 4 2 8 11 5 6 4 3 3 8 5 7 3 12 14 15 16 15 12 11 11 12 11 11 9 7 7 6 5 4 3 2 3 4 5 5 4 5 5 6 7
1 2 5 2 4 3 6 6 6 11 6 11 7 5 8 8 3 6 10 11 10 10 13 13 13 12 11 8 7 6 5 5 3 3 2 3 4 6 5 4 5 4 5 7
3 2 3 2 4 3 1 2 2 1 11 15 7 5 3 4 11 14 13 13 14 14 14 15 11 11 11 7 7 6 5 4 3 2 2 4 4 6 3 3 5 4 7 6
2 2 6 4 3 5 2 4 5 3 8 11 6 2 9 8 12 12 13 15 14 13 12 11 10 10 9 7 6 5 5 4 2 2 3 4 5 3 4 5 6 6 6 6
2 2 6 2 2 2 3 2 4 5 6 15 15 16 13 13 12 13 14 12 12 12 10 7 8 9 7 7 6 5 4 2 2 3 3 3 4 5 6 6 6 6 6 5
6 6 2 2 2 1 2 4 3 9 8 17 16 14 13 11 12 10 12 11 10 11 10 7 7 7 8 6 6 5 4 2 2 3 4 4 5 6 4 5 5 7 6 7
4 5 3 4 1 2 3 6 8 10 11 13 17 13 12 11 10 9 9 9 10 11 9 7 6 7 6 6 5 5 3 2 3 3 5 5 4 4 4 4 5 6 7 8
2 1 2 1 3 6 9 11 12 10 12 14 16 12 12 10 9 8 8 8 8 8 7 7 7 7 6 6 5 4 2 1 3 3 4 5 4 4 4 4 7 8 7 7
5 7 5 4 8 10 13 12 12 15 10 7 10 12 11 9 7 7 9 7 7 7 7 7 7 6 6 5 5 3 2 3 3 3 4 3 4 5 9 14 17 17 18 14
4 5 4 10 8 4 12 10 10 12 12 13 9 11 9 10 6 11 7 7 8 8 7 7 7 6 5 5 4 4 3 3 3 4 3 4 4 5 8 8 14 16 17 20
9 13 9 3 5 10 14 13 14 12 10 10 11 8 8 9 9 8 7 7 8 8 7 7 6 6 5 4 4 3 3 6 3 4 3 4 4 4 5 7 9 8 11 17
6 5 8 13 14 12 13 14 14 11 10 10 8 10 10 10 8 7 7 7 7 7 6 6 6 5 4 4 4 3 2 3 3 3 3 5 4 5 5 6 7 8 9 12
8 11 11 14 13 12 13 11 15 10 9 8 9 8 8 8 8 7 7 7 7 5 6 6 5 4 4 4 3 2 3 8 8 3 4 4 4 5 6 6 7 7 8 9
15 6 11 10 12 12 10 8 11 11 10 10 8 8 10 9 8 7 6 5 6 6 6 6 5 4 4 2 1 1 2 4 11 4 4 5 5 6 5 6 7 7 8 9
8 8 8 15 14 13 11 9 11 11 10 9 9 9 9 7 7 7 6 6 6 6 5 5 5 4 2 2 1 1 3 3 4 4 5 4 5 5 6 7 7 8 8 9
9 13 13 13 11 12 11 11 9 10 10 9 9 8 7 6 7 6 6 6 6 6 2 4 5 4 3 3 4 3 3 4 4 4 4 9 5 6 6 6 7 8 9 9
12 12 15 15 13 14 12 10 11 10 7 9 9 8 7 6 7 7 6 5 4 4 5 3 3 3 3 4 7 3 4 4 4 4 4 5 5 6 6 10 10 9 9 9
15 16 15 15 13 13 11 9 11 10 7 7 9 8 8 6 6 6 7 5 2 3 4 5 3 2 2 5 5 4 4 4 4 4 4 5 6 6 7 8 8 8 9 9
14 15 15 14 13 12 9 9 9 9 8 8 8 8 9 7 7 7 5 4 2 6 3 3 2 5 4 8 3 4 4 4 4 4 4 5 6 6 7 7 7 8 8 8
13 14 14 12 13 12 9 8 7 8 9 8 8 7 7 4 3 4 4 3 3 5 3 3 5 7 9 4 3 4 4 4 4 5 5 4 5 4 6 8 8 8 8 8
13 12 12 11 11 12 12 5 9 9 10 9 8 7 7 6 5 3 4 6 7 7 4 4 6 9 8 3 3 4 4 4 4 4 5 10 5 6 5 7 8 7 8 11
11 10 9 9 10 8 10 9 10 9 10 9 8 6 6 4 3 2 3 4 8 6 4 7 10 10 3 4 4 4 4 4 4 5 6 5 5 7 7 7 8 8 8 8
10 7 5 6 8 7 7 6 7 6 7 6 5 4 4 4 4 4 4 6 4 5 3 3 3 4 4 4 4 4 4 5 6 6 8 6 6 7 7 7 7 8 8 8
9 12 8 7 5 5 6 7 7 6 5 5 6 3 4 3 5 5 6 4 3 4 4 3 3 5 5 5 5 5 4 4 9 7 5 6 6 6 7 7 8 8 8 8
Wind_Direction
262 241 203 187 164 148 166 212 83 184 127 188 186 168 160 150 143 148 157 156 157 154 153 151 145 136 133 131 126 123 115 114 120 116 99 77 39 5 339 332 322 315 317 314
346 150 138 165 196 207 161 156 309 165 347 190 119 99 128 154 155 158 160 155 153 155 155 154 148 142 138 134 129 120 122 128 126 110 87 48 5 346 338 331 324 320 321 317
29 278 106 34 240 211 207 224 141 165 212 114 147 170 167 156 163 161 159 158 161 161 158 152 145 140 138 134 124 121 126 130 126 106 71 17 357 351 334 323 321 317 318 322
310 15 66 245 108 202 195 210 200 259 108 148 127 95 58 336 160 161 158 155 153 148 141 135 129 126 124 123 122 125 132 135 119 98 44 3 351 332 321 308 311 312 312 300
48 302 278 355 8 72 168 242 192 207 162 129 147 85 19 9 81 139 142 137 128 128 126 122 124 127 123 117 120 126 133 127 112 81 17 337 325 317 300 292 310 303 296 310
354 122 193 230 310 333 346 272 25 145 164 156 163 131 190 2 84 85 91 106 110 110 112 114 122 122 119 123 126 131 132 124 95 58 343 317 309 301 281 305 299 311 313 305
291 353 291 250 315 331 109 243 318 244 173 155 138 166 136 107 73 81 95 102 102 104 113 121 120 119 118 122 127 133 120 103 70 3 317 292 304 292 313 318 316 302 293 300
108 58 283 140 54 163 214 5 51 50 95 96 107 105 106 102 100 103 103 98 104 108 111 108 111 114 119 124 140 121 110 96 5 331 309 322 333 328 329 316 307 304 305 301
186 211 238 16 125 185 167 110 87 105 104 114 114 113 111 111 108 105 107 107 106 111 105 99 112 119 122 145 126 114 94 56 347 326 331 352 348 327 319 317 314 322 316 314
132 223 198 156 4 41 105 110 103 113 117 120 117 116 113 112 115 113 115 116 117 115 112 106 107 111 121 128 117 104 95 19 338 357 359 351 331 313 317 316 322 322 320 323
256 280 84 197 194 133 109 108 102 97 117 124 120 120 126 126 122 121 121 124 126 128 126 123 115 113 120 116 112 107 96 12 11 7 348 319 319 310 318 302 325 328 323 321
215 191 173 174 158 143 124 123 122 119 105 94 120 122 125 125 127 125 128 125 120 123 125 132 124 124 122 118 118 125 68 18 346 328 318 325 316 319 336 332 328 326 327 328
194 113 81 109 106 88 115 112 108 111 118 119 106 122 123 125 122 132 114 120 131 138 131 130 127 128 135 132 118 92 62 337 323 333 318 315 331 332 324 322 322 328 328 330
103 104 75 84 139 112 109 103 97 89 89 102 110 99 105 105 116 115 124 126 121 121 124 129 129 137 145 120 97 69 25 336 322 309 308 317 315 306 309 320 324 324 326 326
36 67 113 110 102 103 108 110 102 104 106 92 91 109 113 116 117 121 118 113 111 114 120 124 129 140 123 104 77 38 336 314 311 310 318 328 321 308 299 305 309 312 318 324
72 88 105 114 119 117 115 113 117 117 111 107 112 112 114 110 111 110 111 120 125 142 141 130 129 148 117 88 65 354 343 344 345 332 330 319 308 305 312 314 317 316 319 324
116 103 118 121 133 134 130 123 126 128 125 121 122 119 112 110 106 109 108 109 125 131 140 137 136 109 84 88 79 1 331 339 344 337 316 304 301 310 309 310 313 316 317 321
98 100 130 141 143 132 122 118 123 125 124 125 118 114 115 124 134 133 127 117 105 105 109 114 111 100 77 57 87 344 357 333 321 311 304 305 310 323 317 314 316 319 323 322
125 126 129 121 120 117 118 117 114 114 116 119 115 118 125 130 132 132 130 124 120 114 108 111 98 87 65 355 32 20 346 325 312 302 305 325 320 314 311 316 324 326 324 320
117 118 117 113 112 120 116 109 109 108 109 111 110 111 109 112 120 121 113 94 98 125 130 123 95 81 66 8 359 1 333 320 313 312 317 328 314 315 320 325 326 322 317 316
115 113 112 111 107 104 106 114 115 112 115 116 122 123 117 115 112 122 113 100 60 109 108 78 88 92 12 352 20 345 331 326 320 311 311 315 316 320 322 320 315 310 312 316
117 114 113 114 111 102 98 103 109 109 108 106 104 107 109 103 94 72 56 117 150 90 72 54 38 2 350 14 357 339 326 317 309 304 306 314 316 316 312 314 313 311 312 314
117 117 115 117 114 110 96 95 98 108 105 103 108 106 101 98 107 118 114 95 89 68 62 29 9 0 6 19 348 327 318 317 319 318 310 298 297 293 308 314 309 312 309 310
113 109 109 111 109 107 105 89 93 86 89 86 87 99 112 107 74 48 86 85 70 61 47 9 9 6 21 348 329 321 317 315 312 297 298 323 312 301 292 306 304 309 312 306
112 113 114 111 106 106 111 109 97 91 93 87 78 71 72 54 108 117 87 61 51 58 31 7 10 4 357 331 320 314 309 298 299 312 321 306 305 314 312 311 311 308 310 312
116 112 101 97 117 122 120 118 113 114 111 102 85 80 73 67 81 81 64 66 42 31 19 358 343 348 331 319 313 316 312 306 321 312 319 315 309 306 303 304 305 301 300 303
95 106 103 96 89 105 113 122 120 119 117 116 107 88 91 80 76 70 62 45 27 14 360 345 338 334 326 320 325 316 307 298 321 319 318 302 298 297 301 301 297 296 298 299